www.pogodaiklimat.ru

Погода и климат >> Архив погоды >> Австралия >> Западная Австралия >> Холс Крик


ПОГОДА в Холс Крик

  • Прогноз погоды в Холс Крик
  • Монитор погоды в Холс Крик

АРХИВ ПОГОДЫ в Холс Крик

Время (UTC), дата Ветер
(напр.,м/с)
 
Видим.   Явления Облачность Т
(С)
Тd
(С)
f
(%)
Тe
(С)
Тes
(С)
Комфортность P
(гПа)
Po
(гПа)
Тmin
(С)
Tmax
(С)
R
(мм)
R24
(мм)
S
(см)
01 17.03 СЗ 3 н/о н/о +32.3 +18.8 45 +37 +37 очень
душно
1009.1 963.8 +25.3
03 17.03 С 3 н/о н/о +34.8 +18.8 39 +40 +40 очень
душно
1008.1 962.9
04 17.03 СВ 3 н/о 1/0 2000 м
[]
+35.3 +16.1 32 +38 +53 опасность
солнечного
удара
1007.2 962.0
06 17.03 З 5 н/о н/о +23.0 +19.2 79 +29 +29 очень
душно
1007.0 961.8
07 17.03 С 3 н/о в посл. час дождь со снегом {туман} 6/0 2000 м
[]
+28.3 +21.3 66 +36 +40 очень
душно
1005.7 960.6
09 17.03 З 2 н/о н/о +29.1 +21.8 65 +37 +37 очень
душно
1006.0 960.9
10 17.03 ЮЗ 4 н/о 10/0
[]
+28.0 +20.6 64 +35 +35 очень
душно
1006.8 961.6
12 17.03 СЗ 3 н/о н/о +26.9 +21.0 70 +34 +34 очень
душно
1008.8 963.6
13 17.03 З 3 н/о 9/0
[]
+27.3 +20.1 65 +34 +34 очень
душно
1009.2 963.9 +37.2
15 17.03 штиль 0 н/о н/о +25.9 +21.8 78 +33 +33 очень
душно
1008.7 963.5
16 17.03 штиль 0 н/о 8/0
[]
+25.1 +22.8 87 +33 +33 очень
душно
1008.3 963.1
18 17.03 З 1 н/о н/о +24.7 +21.6 83 +32 +32 очень
душно
1008.2 963.0
19 17.03 ЮЗ 1 н/о н/о +24.5 +22.6 89 +32 +32 очень
душно
1008.2 963.0
21 17.03 ЮЗ 3 н/о н/о +24.1 +21.8 87 +31 +31 очень
душно
1008.4 963.2
22 17.03 З 3 н/о н/о +24.1 +21.0 83 +30 +30 очень
душно
1008.6 963.4
00 18.03 ЮЗ 3 н/о н/о +28.3 +20.6 63 +35 +35 очень
душно
1009.2 963.9
01 18.03 Ю 3 н/о н/о +30.0 +20.5 57 +37 +37 очень
душно
1009.3 964.0 +22.1
03 18.03 З 2 н/о н/о +33.7 +19.0 42 +39 +39 очень
душно
1008.0 962.8
04 18.03 ЮЗ 2 н/о н/о +34.7 +18.3 38 +39 +39 очень
душно
1006.6 961.5
06 18.03 СВ 5 н/о н/о +36.4 +15.5 29 +38 +38 очень
душно
1004.9 959.8
07 18.03 Ю 3 н/о н/о +36.7 +14.6 27 +38 +38 очень
душно
1004.1 959.1
09 18.03 ЮВ 4 н/о н/о +36.1 +13.6 26 +37 +37 душно 1003.9 958.9
10 18.03 С 5 н/о 9/0
[]
+33.9 +14.9 32 +36 +36 душно 1005.2 960.1
12 18.03 СЗ 3 н/о н/о +31.4 +17.3 43 +35 +35 очень
душно
1007.4 962.2
13 18.03 С 3 н/о 10/0
[]
+30.5 +16.5 43 +34 +34 очень
душно
1007.9 962.7 +37.3
15 18.03 С 1 н/о н/о +29.1 +18.5 53 +34 +34 очень
душно
1007.5 962.3
16 18.03 штиль 0 н/о 5/0
[]
+27.5 +19.0 60 +33 +33 очень
душно
1007.0 961.8
18 18.03 штиль 0 н/о н/о +24.9 +20.6 77 +31 +31 очень
душно
1006.0 960.9
19 18.03 штиль 0 н/о н/о +24.0 +20.3 80 +30 +30 очень
душно
1005.9 960.8
21 18.03 штиль 0 н/о н/о +22.9 +21.2 90 +30 +30 очень
душно
1006.2 961.1
22 18.03 штиль 0 н/о н/о +23.5 +21.9 91 +30 +30 очень
душно
1007.1 961.9
00 19.03 З 3 н/о н/о +30.0 +19.1 52 +35 +35 очень
душно
1008.2 963.0
01 19.03 З 3 н/о н/о +31.9 +19.2 47 +37 +37 очень
душно
1008.5 963.3 +22.6
03 19.03 С 3 н/о н/о +35.4 +12.4 25 +35 +35 очень
жарко
1007.2 962.0
04 19.03 С 5 н/о н/о +35.9 +12.8 25 +36 +36 очень
жарко
1005.9 960.8
06 19.03 С 4 н/о н/о +37.3 +11.3 21 +37 +37 очень
жарко
1004.1 959.1
07 19.03 СВ 5 н/о н/о +38.3 +7.1 15 +36 +36 очень
жарко
1003.8 958.8
09 19.03 В 4 н/о н/о +36.8 +8.6 18 +35 +35 очень
жарко
1003.8 958.8
10 19.03 СВ 3 н/о н/о +34.2 +9.4 22 +33 +33 жарко 1004.7 959.6
12 19.03 штиль 0 н/о н/о +28.2 +16.1 48 +31 +31 душно 1006.4 961.3
13 19.03 штиль 0 н/о н/о +26.6 +18.2 60 +31 +31 душно 1007.1 961.9 +38.8
15 19.03 штиль 0 н/о н/о +25.1 +17.8 64 +29 +29 душно 1006.6 961.5
16 19.03 штиль 0 н/о н/о +24.8 +18.5 68 +29 +29 душно 1006.2 961.1
18 19.03 штиль 0 н/о н/о +24.0 +19.5 76 +29 +29 душно 1005.0 959.9
19 19.03 ЮЗ 1 н/о н/о +23.5 +18.8 75 +28 +28 душно 1005.1 960.0
21 19.03 З 3 н/о н/о +26.0 +20.3 71 +32 +32 очень
душно
1006.2 961.1
22 19.03 З 2 н/о н/о +25.4 +20.4 74 +31 +31 очень
душно
1006.9 961.7
00 20.03 ЮЗ 4 н/о н/о +30.3 +21.7 60 +39 +39 очень
душно
1008.4 963.2
01 20.03 З 4 н/о н/о +32.2 +21.1 52 +40 +40 очень
душно
1008.8 963.6 +23.4
03 20.03 Ю 3 н/о н/о +35.1 +17.8 36 +39 +39 очень
душно
1007.8 962.6
04 20.03 СВ 3 н/о н/о +36.5 +15.6 29 +38 +38 очень
душно
1006.4 961.3
06 20.03 В 2 н/о н/о +38.9 +10.3 18 +38 +38 очень
жарко
1004.6 959.5
07 20.03 В 3 н/о н/о +38.6 +8.3 16 +37 +37 очень
жарко
1004.1 959.1
09 20.03 СВ 3 н/о н/о +37.4 +9.9 19 +36 +36 очень
жарко
1004.6 959.5
10 20.03 З 4 н/о 3/0
[]
+34.0 +15.9 34 +36 +36 душно 1005.3 960.2
12 20.03 З 4 н/о н/о +31.5 +18.5 46 +36 +36 очень
душно
1007.1 961.9
13 20.03 З 4 н/о н/о +30.5 +18.9 50 +36 +36 очень
душно
1007.5 962.3 +39.6
15 20.03 СЗ 2 н/о н/о +29.0 +19.6 57 +35 +35 очень
душно
1007.1 961.9
16 20.03 ЮЗ 2 н/о н/о +27.0 +19.9 65 +33 +33 очень
душно
1006.6 961.5
18 20.03 З 3 н/о н/о +26.4 +19.8 67 +32 +32 очень
душно
1006.0 960.9
19 20.03 З 3 н/о н/о +26.3 +20.4 70 +33 +33 очень
душно
1006.1 961.0
21 20.03 З 2 н/о н/о +25.2 +20.7 76 +31 +31 очень
душно
1007.0 961.8
22 20.03 З 3 н/о н/о +25.2 +21.3 79 +32 +32 очень
душно
1007.4 962.2
00 21.03 ЮЗ 5 н/о н/о +29.5 +22.0 64 +38 +38 очень
душно
1009.0 963.7
01 21.03 ЮЗ 4 н/о н/о +31.9 +22.0 56 +41 +41 опасность
перегрева
1009.0 963.7 +25.0
03 21.03 ЮВ 7 н/о н/о +35.1 +18.6 38 +40 +40 очень
душно
1007.5 962.3
04 21.03 ЮВ 5 н/о н/о +36.7 +16.8 31 +39 +39 очень
душно
1006.1 961.0
06 21.03 Ю 4 н/о н/о +38.4 +13.6 23 +39 +39 очень
душно
1004.0 959.0
07 21.03 ЮВ 4 н/о 1/0
[]
+38.4 +11.5 20 +38 +43 очень
жарко
1003.4 958.4
09 21.03 ЮВ 1 н/о н/о +38.0 +13.9 24 +38 +38 очень
жарко
1003.5 958.5
10 21.03 штиль 0 н/о 1/0
[]
+33.8 +11.6 26 +34 +34 очень
жарко
1004.0 959.0
12 21.03 ЮЗ 3 н/о н/о +30.8 +17.5 45 +35 +35 очень
душно
1005.5 960.4
13 21.03 З 4 н/о н/о +30.2 +17.6 47 +34 +34 очень
душно
1006.1 961.0 +39.5
15 21.03 ЮЗ 4 н/о н/о +28.8 +18.6 54 +34 +34 очень
душно
1005.6 960.5
16 21.03 ЮЗ 3 н/о н/о +28.1 +18.8 57 +33 +33 очень
душно
1005.6 960.5
18 21.03 З 2 н/о н/о +28.0 +19.8 61 +34 +34 очень
душно
1005.4 960.3
22 21.03 ЮЗ 4 н/о н/о +26.8 +22.2 76 +35 +35 очень
душно
1007.2 962.0
01 22.03 ЮЗ 6 н/о н/о +31.3 +22.6 60 +41 +41 опасность
перегрева
1007.7 962.5 +26.6
03 22.03 ЮЗ 4 н/о н/о +35.0 +19.4 40 +40 +40 очень
душно
1006.3 961.2
04 22.03 Ю 3 н/о н/о +36.7 +15.8 29 +39 +39 очень
душно
1005.1 960.0
06 22.03 Ю 2 н/о н/о +38.2 +13.4 23 +38 +38 очень
жарко
1003.0 958.0
07 22.03 Ю 3 н/о 4/0
[]
+38.9 +11.9 20 +38 +43 очень
жарко
1002.4 957.4
09 22.03 Ю 4 н/о н/о +38.3 +10.6 19 +37 +37 очень
жарко
1002.3 957.3
10 22.03 ЮЗ 3 н/о н/о +35.7 +12.6 25 +36 +36 очень
жарко
1003.1 958.1
12 22.03 З 4 н/о н/о +32.0 +15.9 38 +35 +35 очень
душно
1004.9 959.8
13 22.03 З 7 н/о 8/0
[]
+31.5 +18.5 46 +36 +36 очень
душно
1005.7 960.6 +40.2
15 22.03 З 4 н/о н/о +28.6 +18.1 53 +33 +33 очень
душно
1005.7 960.6
16 22.03 З 4 н/о н/о +28.1 +17.0 51 +32 +32 душно 1005.4 960.3
18 22.03 ЮЗ 4 н/о н/о +26.9 +18.5 60 +32 +32 очень
душно
1004.2 959.2
19 22.03 З 4 н/о н/о +26.6 +19.0 63 +32 +32 очень
душно
1004.4 959.4
21 22.03 ЮЗ 4 н/о н/о +25.7 +18.6 65 +31 +31 очень
душно
1004.2 959.2
22 22.03 ЮЗ 4 н/о н/о +25.6 +19.9 71 +31 +31 очень
душно
1005.0 959.9
00 23.03 ЮЗ 6 н/о н/о +29.3 +20.2 58 +36 +36 очень
душно
1006.1 961.0
01 23.03 ЮЗ 5 н/о н/о +31.5 +21.1 54 +39 +39 очень
душно
1005.9 960.8 +25.3
03 23.03 ЮЗ 6 н/о н/о +34.9 +20.1 42 +41 +41 опасность
перегрева
1005.0 959.9
04 23.03 ЮЗ 4 н/о н/о +35.6 +17.8 35 +39 +39 очень
душно
1003.9 958.9
06 23.03 З 5 н/о н/о +38.2 +17.0 29 +41 +41 опасность
перегрева
1001.9 957.0
07 23.03 ЮЗ 5 н/о 5/0 2000 м
[]
+37.9 +16.8 29 +40 +43 очень
душно
1001.2 956.3
09 23.03 З 5 н/о н/о +25.7 +19.1 67 +31 +31 очень
душно
1002.3 957.3
10 23.03 ЮЗ 6 н/о ливневой дождь {туман} 10/0
[]
+25.8 +19.7 69 +31 +31 очень
душно
1003.2 958.2
12 23.03 ЮЗ 4 н/о н/о +26.4 +20.9 72 +33 +33 очень
душно
1005.5 960.4
13 23.03 З 4 н/о {туман} 9/0
[]
+27.0 +20.6 68 +34 +34 очень
душно
1006.2 961.1 +38.7
15 23.03 СЗ 6 н/о н/о +26.3 +21.7 76 +34 +34 очень
душно
1004.8 959.7
16 23.03 З 4 н/о 10/0
[]
+26.2 +21.2 74 +33 +33 очень
душно
1004.3 959.3
18 23.03 З 4 н/о н/о +26.3 +21.3 74 +33 +33 очень
душно
1003.2 958.2
19 23.03 З 3 н/о 10/0
[]
+26.1 +22.0 78 +34 +34 очень
душно
1003.2 958.2
21 23.03 З 3 н/о н/о +25.5 +22.6 84 +34 +34 очень
душно
1004.3 959.3
22 23.03 З 3 н/о 4/0
[]
+26.0 +23.1 84 +35 +35 очень
душно
1004.9 959.8
00 24.03 З 6 н/о н/о +27.3 +22.9 77 +36 +36 очень
душно
1007.0 961.8

 

Местоположение метеостанции Холс Крик (Западная Австралия, Австралия): широта -18.23 долгота 127.66 высота над уровнем моря 424 м.

В архиве по умолчанию представлена погода в Холс Крик за последнюю неделю. Архивные данные за месяц целиком и за предыдущие месяцы, начиная с января 2011 года, Вы можете получить, выбрав интересующий диапазон дат из раскрывающегося списка и нажав кнопку "Ввод!".


*Определитесь, кто Вы:
робот инопланетянин человек

Внимание! Время в таблицах - всемирное. Для получения местного времени необходимо прибавить поправку, которая равна 8 ч.

Смотрите также архив погоды в соседних городах и на ближайших метеорологических станциях:

Погода в Аэропорту Аргайл (Западная Австралия, Австралия) (197 км)
Погода в Фицрой-Кроссинге (Западная Австралия, Австралия) (222 км)
Погода в Кунунарре (Западная Австралия, Австралия) (294 км)
Погода в Уиндеме (Западная Австралия, Австралия) (308 км)
Погода в Ладжаману (Северная территория, Австралия) (314 км)
Погода в Раббит Флат (Северная территория, Австралия) (329 км)
Погода в Виктория-Ривер (Северная территория, Австралия) (411 км)
Погода на Базе ВВС Curtin (Западная Австралия, Австралия) (413 км)
Погода в Дерби (Северная территория, Австралия) (435 км)
Погода в Калумбуру (Западная Австралия, Австралия) (450 км)

Пояснения к столбцам:

Ветер - указаны скорость ветра в м/с - средняя за 10 мин, порывы в срок и между сроками (в фигурных скобках) и направление, откуда дует ветер: С - северный, СВ - северо-восточный, В - восточный, ЮВ - юго-восточный, Ю - южный, ЮЗ - юго-западный, З - западный, СЗ - северо-западный.
Видимость - горизонтальная дальность видимости в метрах или километрах. При видимости от 1 до 10 км при отсутствии осадков обычно наблюдается дымка, при ухудшении видимости до 1 км и менее - туман. В сухую погоду видимость может ухудшаться дымом, пылью или мглою.
Явления - указаны атмосферные явления, наблюдавшиеся в срок или в последний час перед сроком; фигурными скобками обозначены явления, наблюдавшиеся между сроками (за 1-3 часа до срока); квадратными скобками обозначены град или гололедные отложения с указанием их диаметра в мм.
Облачность - указаны через наклонную черту общая и нижняя облачность в баллах и высота нижней границы облаков в метрах; квадратными скобками обозначены формы облаков: Ci - перистые, Cs - перисто-слоистые, Cc - перисто-кучевые, Ac - высококучевые, As - высокослоистые, Sc - слоисто-кучевые, Ns - слоисто-дождевые, Cu - кучевые, Cb - кучево-дождевые. Подробнее классификацию облаков см. в Атласе облаков (PDF).
T - Температура воздуха - температура, измеренная на высоте 2 м над землей.
Td - Температура точки росы - температура, при понижении до которой содержащийся в воздухе водяной пар достигнет насыщения.
f - Относительная влажность воздуха - влажноcть воздуха, измеренная на высоте 2 м над землей.
Te - Эффективная температура - температура, которую ощущает одетый по сезону человек в тени. Характеристика душности погоды. При расчете учитывается влияние влажности воздуха и скорости ветра на теплоощущения человека.
Tes - Эффективная температура на солнце - температура, которую ощущает человек, с поправкой на солнечный нагрев. Характеристика знойности погоды. Зависит от высоты солнца над горизонтом, облачности и скорости ветра. Ночью, в пасмурную погоду, а также при ветре 12 м/с и более поправка равна нулю.
P - Атмосферное давление - приведенное к уровню моря атмосферное давление.
Po - Атмосферное давление - измеренное на уровне метеостанции атмосферное давление.
Tmin - Минимальная температура - минимум температуры воздуха на высоте 2 м над землей.
Tmax - Максимальная температура - максимум температуры воздуха на высоте 2 м над землей.
R - Количество осадков - Количество выпавших осадков за период времени, мм. При наведении курсора мыши на число - период времени, за который выпало указанное количество осадков.
R24 - Количество осадков - Количество выпавших осадков за 24 часа, мм.
S - Снежный покров - Высота снежного покрова, см. При наведении курсора мыши на число - состояние снежного покрова и степень покрытия местности в баллах.